Wind_Speed
3 4 4 4 4 4 4 3 3 3 3 3 3 3 3 2 2 2 2 1 1 1 1 1 1 1 2 2 3 2 2 2 2 3 3 4 4 5 5 5 5 5 5
3 3 3 4 4 4 3 3 3 3 2 2 2 2 1 1 1 1 1 0 1 1 1 1 2 2 2 3 3 3 3 3 4 5 5 6 6 6 6 6 7 7 7
3 2 2 3 3 3 3 3 2 3 2 2 2 2 1 1 1 1 1 1 2 2 3 3 3 4 4 4 4 4 5 5 6 6 7 7 7 7 8 8 8 9 9
3 3 2 3 3 3 3 3 3 2 3 3 3 3 3 3 3 3 3 3 4 4 4 4 5 5 5 5 5 5 5 6 7 7 8 8 8 9 9 10 10 10 11
3 3 3 3 3 3 3 3 3 3 3 4 4 4 4 4 4 4 5 5 5 5 5 5 6 6 6 6 6 6 7 7 8 8 9 9 9 9 9 10 11 12 11
3 4 4 4 4 4 4 4 4 5 5 4 4 5 5 5 5 5 6 6 6 6 6 7 7 7 7 7 8 8 9 9 9 10 10 10 11 11 11 11 12 13 13
3 3 4 4 4 4 5 5 5 5 5 5 6 6 6 6 7 7 7 7 7 7 8 8 8 8 9 9 9 10 10 10 11 12 12 13 13 13 13 13 13 14 14
3 3 4 5 5 6 5 6 6 6 6 6 7 7 7 7 8 8 8 8 8 8 8 9 9 10 10 11 11 11 11 11 12 13 13 14 14 15 15 15 15 15 15
3 3 4 5 6 6 6 6 7 7 7 8 8 8 8 9 9 10 10 10 10 10 10 11 11 11 12 12 12 13 13 13 13 13 14 15 15 16 16 17 17 17 17
4 4 4 6 7 7 6 7 7 8 9 9 9 10 10 10 10 11 11 11 11 12 12 13 13 13 13 13 14 14 14 15 15 15 16 16 16 16 17 17 18 18 19
5 6 6 7 8 8 8 7 7 8 9 10 10 11 11 11 11 11 11 12 13 13 13 14 14 14 15 15 15 15 16 16 17 17 17 18 18 18 18 19 20 20 21
6 7 7 7 7 8 8 8 9 10 11 11 11 11 12 12 12 12 13 13 14 15 15 16 15 15 16 16 16 17 17 17 18 18 19 19 19 20 20 20 21 21 22
7 7 7 7 8 8 8 9 10 10 11 11 12 12 13 13 13 14 14 15 16 16 16 16 16 17 17 17 17 18 18 18 19 20 20 21 21 21 21 22 21 21 22
8 8 8 9 9 9 9 10 11 11 12 12 13 13 14 15 15 15 16 16 16 17 17 17 18 18 18 19 19 19 19 20 21 21 22 22 22 23 23 23 23 23 23
8 8 9 10 10 10 10 11 12 12 12 13 14 15 15 16 16 17 17 17 18 17 18 18 18 19 20 20 20 21 21 21 21 22 22 22 23 23 24 24 24 24 24
9 9 10 11 11 11 12 12 13 14 14 15 15 16 16 17 17 18 18 18 19 19 19 20 19 20 20 20 21 21 22 23 23 23 23 23 23 23 23 24 25 25 26
11 11 12 12 13 13 13 13 14 15 15 15 16 17 17 18 19 19 19 19 20 20 19 19 19 20 21 21 21 22 23 23 23 23 23 23 23 24 24 24 25 26 27
13 13 13 13 13 14 14 15 15 15 16 17 17 18 18 19 19 19 20 20 21 21 21 21 21 21 22 22 23 23 24 24 24 24 24 24 24 24 25 26 26 27 27
15 15 14 14 14 15 15 15 16 16 17 17 18 19 19 19 20 20 20 21 21 22 21 21 22 22 23 23 24 24 25 25 25 25 25 25 25 25 26 27 27 28 28
15 16 15 15 15 16 16 16 16 17 17 18 18 19 19 19 20 20 20 21 21 21 22 22 23 24 24 25 25 25 25 25 25 25 25 26 26 27 27 28 29 29 29
16 16 15 15 16 16 17 17 17 17 18 18 19 20 21 21 21 21 21 21 22 22 23 23 24 25 25 26 26 26 25 25 26 26 26 27 28 28 29 30 30 30 31
17 17 17 18 18 18 19 19 19 19 19 19 20 20 21 21 21 21 21 22 22 23 24 24 25 25 25 26 26 25 26 26 27 27 27 28 28 29 30 31 31 31 32
20 20 20 20 20 20 21 21 21 21 21 21 21 21 22 22 22 22 22 22 23 24 24 25 26 26 27 27 27 27 28 29 29 29 29 29 30 31 31 31 32 32 33
22 22 22 22 21 21 21 22 22 22 22 22 22 23 23 23 23 23 24 24 25 25 26 27 27 28 28 29 30 30 31 31 31 31 31 31 31 32 32 32 33 34 34
24 23 22 23 22 22 22 22 22 22 23 23 24 24 24 24 24 25 26 26 27 28 28 28 29 29 30 31 31 32 32 33 33 33 33 33 33 33 33 33 33 34 34
23 23 22 23 23 23 23 24 24 24 24 24 24 24 25 26 26 26 26 26 27 28 29 30 31 31 32 32 33 33 34 34 34 34 34 34 34 34 34 34 35 35 35
Wind_Direction
170 172 176 171 167 167 170 168 160 163 159 147 135 128 121 113 121 121 104 91 85 84 49 34 23 7 350 335 328 322 325 314 292 287 293 292 284 278 270 268 268 270 270
174 175 186 188 176 182 186 181 179 180 181 171 158 145 136 100 156 157 150 67 314 306 301 304 317 319 321 320 312 304 303 306 304 300 293 290 283 281 272 269 268 270 273
194 180 188 194 187 191 197 200 197 194 195 197 201 204 223 250 233 226 240 262 280 291 299 299 301 300 300 308 306 297 289 290 294 295 294 291 286 282 275 271 271 273 274
215 215 214 206 204 210 217 219 224 225 224 227 228 240 251 258 248 254 266 274 278 283 291 297 298 296 297 296 298 299 296 291 297 297 296 293 289 286 281 279 277 278 276
237 240 233 230 227 228 239 239 235 242 244 248 250 253 255 255 264 264 269 275 279 285 286 292 298 294 295 295 297 295 295 295 298 298 297 294 290 287 284 283 282 281 279
248 250 241 237 239 243 251 252 245 248 254 264 264 262 261 262 269 269 275 284 286 285 287 291 296 297 296 297 299 297 297 294 293 295 294 291 288 285 281 281 283 283 281
291 261 248 242 247 255 257 256 252 250 256 265 271 269 270 271 275 280 281 284 288 284 286 286 290 293 296 298 299 297 295 294 293 291 293 291 287 285 284 281 283 283 283
305 282 263 266 267 264 260 257 254 252 257 268 275 271 269 275 276 279 281 286 286 283 282 284 285 288 291 294 295 295 294 293 295 295 292 290 288 286 286 285 286 286 286
309 290 266 272 276 279 267 262 258 257 265 275 276 273 270 277 282 280 280 284 285 285 283 283 282 286 289 291 293 293 293 292 294 295 294 291 290 288 286 285 286 284 284
310 295 281 276 274 277 271 264 261 266 271 275 277 279 280 285 284 282 282 284 286 287 288 289 286 287 289 289 289 289 290 291 291 292 293 292 292 290 287 285 283 281 281
300 297 294 287 280 280 274 271 272 275 277 279 279 280 283 286 286 286 286 288 289 288 289 289 288 289 289 289 288 288 288 289 288 289 290 292 293 290 289 287 285 282 281
299 294 294 292 289 289 279 275 278 279 280 282 281 281 283 285 287 288 290 290 289 289 290 290 290 290 289 288 287 288 288 289 288 288 290 290 291 290 288 288 288 286 284
310 303 298 296 295 293 284 279 282 285 284 286 285 284 285 285 286 287 288 288 289 289 290 292 291 290 289 288 288 289 290 292 290 289 290 290 288 289 289 287 286 286 285
312 306 304 298 295 295 292 287 284 285 287 287 287 287 288 287 286 286 287 287 288 289 290 291 290 287 288 288 289 291 291 293 290 290 291 290 288 288 289 287 286 285 285
305 302 302 297 295 293 293 291 289 286 287 287 287 287 288 289 288 287 287 287 288 290 292 293 293 291 288 287 289 288 290 293 291 291 292 291 291 290 289 287 287 286 285
304 301 303 301 298 295 294 292 291 290 288 289 289 289 289 290 291 290 289 289 289 290 290 291 292 291 292 291 291 290 291 291 292 293 293 291 291 291 290 289 286 286 287
304 300 302 300 297 297 297 295 292 289 289 291 292 291 291 291 291 291 290 290 291 290 290 291 293 294 294 293 294 293 293 294 296 295 294 293 292 291 292 293 290 289 289
308 304 299 301 299 299 298 295 293 292 290 291 292 293 293 293 292 293 292 291 290 291 291 290 292 294 293 293 293 293 293 294 295 295 294 294 293 293 293 293 293 292 291
311 308 306 305 303 302 301 297 294 292 291 292 294 295 294 293 292 292 292 291 290 290 290 290 291 293 293 294 295 294 294 294 294 294 294 294 295 295 295 295 294 293 293
314 313 313 310 306 303 302 300 296 293 291 292 295 295 295 293 293 292 292 292 292 292 291 291 292 293 295 295 295 295 294 294 294 295 295 295 294 294 294 294 294 295 294
315 315 314 312 308 304 303 302 300 298 296 296 296 296 294 292 293 293 293 293 294 293 293 293 293 294 295 295 295 295 295 296 296 295 294 294 294 295 295 295 294 294 295
312 311 311 309 306 304 302 300 299 299 299 298 298 297 296 294 294 294 295 296 296 295 294 294 294 295 296 296 295 296 296 296 296 295 294 295 295 295 295 295 293 293 293
308 308 308 308 306 303 302 299 297 297 296 296 296 295 295 294 294 295 296 297 297 296 296 295 295 295 295 295 295 295 296 296 296 295 295 295 296 297 296 295 294 293 293
304 304 305 305 303 302 301 298 296 296 297 296 295 295 294 293 294 294 294 294 295 295 296 295 295 295 296 296 296 295 295 295 295 295 295 295 296 296 296 296 295 295 295
303 302 301 302 302 302 302 300 298 296 297 296 295 295 295 294 294 294 293 293 293 294 295 296 296 296 296 296 297 296 295 295 295 295 295 295 295 296 296 296 296 297 297
303 302 300 300 300 299 300 301 300 298 298 298 297 296 294 293 293 293 294 295 295 295 295 295 295 296 295 295 296 296 296 295 295 295 296 295 295 296 296 295 295 296 296
Height
5898 5899 5899 5900 5901 5902 5902 5903 5904 5905 5905 5905 5906 5906 5907 5907 5908 5908 5908 5908 5909 5909 5909 5909 5909 5909 5909 5909 5909 5909 5908 5908 5908 5908 5908 5907 5907 5907 5907 5907 5907 5907 5907
5898 5899 5900 5901 5901 5902 5903 5903 5904 5905 5905 5906 5906 5906 5907 5907 5907 5908 5908 5908 5909 5909 5909 5909 5909 5909 5909 5908 5908 5908 5908 5908 5907 5907 5907 5907 5906 5906 5906 5906 5906 5906 5905
5898 5899 5900 5901 5901 5902 5903 5903 5904 5905 5905 5906 5906 5906 5907 5907 5907 5908 5908 5908 5908 5908 5908 5908 5908 5908 5908 5908 5907 5907 5907 5907 5906 5906 5906 5905 5905 5905 5904 5904 5904 5904 5904
5899 5899 5900 5901 5901 5902 5903 5903 5904 5904 5905 5905 5906 5906 5906 5907 5907 5907 5907 5908 5908 5908 5907 5907 5907 5907 5907 5907 5906 5906 5906 5905 5905 5905 5904 5904 5903 5903 5903 5902 5902 5902 5902
5898 5899 5900 5900 5901 5902 5902 5903 5903 5904 5904 5904 5905 5905 5906 5906 5906 5906 5906 5906 5907 5907 5907 5906 5906 5906 5906 5905 5905 5905 5904 5904 5903 5903 5902 5902 5901 5901 5900 5900 5900 5899 5899
5898 5899 5900 5900 5901 5901 5902 5902 5903 5903 5903 5904 5904 5904 5904 5905 5905 5905 5905 5905 5905 5905 5905 5905 5905 5905 5904 5904 5904 5903 5902 5902 5901 5901 5900 5900 5899 5898 5898 5897 5897 5897 5896
5898 5899 5900 5900 5900 5900 5901 5901 5902 5902 5902 5903 5903 5903 5903 5903 5903 5903 5903 5903 5903 5903 5903 5903 5903 5903 5902 5902 5902 5901 5900 5900 5899 5898 5897 5897 5896 5896 5895 5895 5894 5893 5893
5898 5898 5899 5899 5899 5899 5899 5900 5900 5901 5901 5901 5901 5901 5901 5902 5901 5902 5901 5901 5901 5901 5901 5901 5901 5901 5900 5900 5899 5898 5898 5897 5896 5895 5894 5894 5893 5892 5892 5891 5891 5890 5889
5898 5898 5898 5899 5898 5898 5898 5898 5899 5899 5900 5900 5900 5900 5900 5900 5900 5900 5899 5899 5899 5899 5898 5898 5898 5898 5897 5897 5896 5895 5895 5894 5893 5892 5891 5890 5889 5889 5888 5887 5887 5886 5885
5897 5897 5897 5898 5897 5897 5897 5897 5897 5898 5898 5898 5898 5898 5898 5897 5897 5897 5897 5897 5896 5896 5895 5895 5895 5894 5894 5894 5893 5892 5891 5890 5889 5888 5887 5886 5885 5884 5884 5883 5882 5881 5881
5896 5896 5896 5896 5896 5896 5895 5895 5895 5896 5896 5896 5896 5895 5895 5895 5895 5894 5894 5894 5893 5893 5892 5892 5891 5890 5890 5889 5889 5888 5887 5886 5885 5884 5883 5882 5881 5880 5879 5878 5877 5876 5876
5895 5895 5895 5895 5894 5894 5894 5894 5894 5894 5894 5894 5893 5893 5893 5892 5892 5892 5892 5891 5890 5889 5888 5888 5887 5887 5886 5885 5884 5883 5882 5881 5880 5879 5879 5877 5876 5875 5874 5873 5872 5871 5870
5894 5893 5893 5893 5893 5892 5892 5892 5892 5891 5891 5891 5891 5890 5890 5889 5889 5889 5888 5887 5887 5886 5885 5884 5883 5883 5882 5881 5880 5879 5878 5877 5875 5874 5873 5872 5871 5870 5869 5867 5866 5865 5864
5892 5892 5892 5891 5891 5890 5889 5889 5889 5889 5889 5888 5888 5887 5887 5886 5885 5885 5885 5884 5883 5882 5881 5880 5879 5878 5877 5876 5875 5874 5873 5872 5870 5869 5868 5867 5865 5864 5863 5862 5860 5859 5858
5890 5890 5890 5889 5888 5888 5887 5887 5886 5886 5886 5885 5884 5884 5883 5882 5882 5881 5880 5880 5879 5878 5877 5876 5875 5874 5872 5871 5870 5869 5868 5867 5865 5864 5862 5861 5860 5858 5857 5855 5854 5853 5852
5889 5888 5887 5887 5886 5885 5884 5884 5883 5883 5882 5882 5881 5880 5879 5878 5877 5877 5876 5875 5874 5874 5873 5871 5870 5869 5868 5866 5865 5864 5862 5861 5860 5858 5857 5855 5854 5852 5850 5849 5848 5846 5845
5887 5886 5885 5884 5883 5882 5881 5880 5880 5879 5879 5878 5877 5876 5875 5874 5873 5872 5871 5870 5869 5868 5867 5866 5865 5864 5862 5861 5860 5858 5857 5856 5854 5852 5851 5849 5848 5846 5844 5842 5841 5839 5838
5884 5883 5882 5881 5880 5879 5878 5877 5876 5876 5875 5874 5873 5872 5871 5870 5869 5868 5866 5865 5864 5863 5862 5861 5860 5859 5857 5856 5854 5853 5851 5849 5848 5846 5844 5843 5841 5839 5838 5836 5834 5833 5831
5881 5880 5878 5878 5876 5875 5874 5873 5872 5872 5871 5870 5869 5868 5866 5865 5864 5863 5861 5860 5859 5858 5857 5856 5854 5853 5851 5850 5848 5846 5845 5843 5841 5840 5838 5836 5835 5833 5831 5829 5827 5825 5823
5879 5877 5876 5875 5873 5872 5871 5870 5868 5867 5866 5865 5864 5863 5862 5860 5859 5858 5857 5855 5854 5852 5851 5850 5849 5847 5845 5844 5842 5840 5838 5837 5835 5833 5832 5830 5828 5826 5824 5822 5820 5818 5816
5876 5875 5873 5871 5870 5869 5867 5866 5864 5863 5862 5861 5859 5858 5857 5855 5854 5853 5851 5850 5848 5847 5845 5844 5843 5841 5839 5837 5836 5834 5832 5830 5828 5826 5825 5823 5820 5818 5816 5814 5812 5810 5807
5873 5871 5870 5868 5866 5865 5863 5862 5860 5859 5857 5856 5854 5853 5852 5850 5849 5847 5846 5844 5843 5841 5840 5838 5836 5835 5833 5831 5829 5827 5825 5824 5822 5820 5817 5815 5813 5811 5808 5806 5803 5801 5799
5869 5868 5866 5864 5862 5860 5859 5857 5855 5854 5852 5851 5849 5848 5846 5845 5843 5842 5840 5839 5837 5835 5834 5832 5830 5828 5826 5824 5822 5820 5818 5816 5814 5811 5809 5807 5805 5802 5799 5797 5794 5792 5789
5865 5863 5861 5859 5857 5856 5854 5852 5850 5849 5847 5845 5843 5842 5840 5839 5837 5836 5834 5833 5831 5829 5827 5825 5823 5821 5819 5817 5815 5812 5810 5808 5806 5803 5801 5799 5796 5794 5791 5788 5786 5783 5780
5860 5858 5856 5854 5853 5851 5849 5847 5845 5843 5841 5840 5838 5836 5834 5832 5831 5829 5828 5826 5824 5822 5820 5818 5816 5814 5812 5809 5806 5804 5802 5799 5797 5795 5792 5790 5787 5784 5782 5779 5776 5773 5770
5854 5852 5850 5849 5847 5845 5844 5841 5839 5838 5836 5834 5832 5830 5828 5826 5824 5823 5821 5819 5817 5815 5813 5811 5808 5806 5803 5801 5798 5796 5793 5790 5788 5786 5783 5780 5777 5775 5772 5770 5766 5763 5760